Tracking 18987 objects as of 25-Feb-2018
HD Live streaming from Space Station
objects crossing your sky now

FLOCK 3P 34

Track FLOCK 3P 34 now!
10-day predictions
FLOCK 3P 34 is classified as:


NORAD ID: 41988
Int'l Code: 2017-008AS
Perigee: 495.3 km
Apogee: 507.0 km
Inclination: 97.5 °
Period: 94.5 minutes
Semi major axis: 6872 km
RCS: Unknown
Launch date: February 15, 2017
Source: United States (US)
Launch site: SRIHARIKOTA (SRI)
aabbcc
Your satellite tracking list
Your tracking list is empty




NASA's NSSDC Master Catalog

Two Line Element Set (TLE):
1 41988U 17008AS  18055.73407302  .00001411  00000-0  61318-4 0  9991
2 41988  97.4644 121.2492 0008528  38.8679 321.3170 15.23938144 56302
Source of the keplerian elements: AFSPC